Probability
0 0 0 0 0 0 0 0 0 0 0 0 0 0 0 0 0 0 0 0 0 0 0 0 0 0 0 0 0 0 0 0 0 0 0 0 0 3
0 0 0 0 0 0 0 0 0 0 0 0 0 0 0 0 0 0 0 0 0 0 0 0 0 0 0 0 0 0 0 0 0 0 0 0 0 0
0 0 0 0 0 0 0 0 0 0 0 0 0 0 0 0 0 0 0 0 0 0 0 0 0 0 0 0 0 0 0 0 0 0 0 0 0 0
0 0 0 0 0 0 0 0 0 0 0 0 0 0 0 0 0 0 0 0 0 0 0 0 0 0 0 0 0 0 0 0 0 0 0 0 0 0
0 0 0 0 0 0 0 0 0 0 0 0 0 0 0 0 0 0 0 0 0 0 0 0 0 0 0 0 0 0 0 0 0 0 0 0 0 0
0 0 0 0 0 0 0 0 0 0 0 0 0 0 0 0 0 0 0 0 0 0 0 0 0 0 0 0 0 0 0 0 0 0 0 0 0 0
0 0 0 0 0 0 0 0 0 0 0 0 0 0 0 0 0 0 0 0 0 0 0 0 0 0 0 0 0 0 0 0 0 0 0 0 0 0
0 0 0 0 0 0 0 0 0 0 0 0 0 0 0 0 0 0 0 0 0 0 0 0 0 0 0 0 0 0 0 0 0 0 0 0 0 0
3 3 0 0 0 0 0 0 0 0 0 0 0 0 0 0 0 0 0 0 0 0 0 0 0 0 0 0 0 0 0 0 0 0 0 0 0 0
3 3 0 0 0 0 0 0 0 0 0 0 0 0 0 0 0 0 0 0 0 0 0 0 0 0 0 0 0 0 0 0 0 0 0 0 0 0
0 0 0 0 0 0 0 0 0 0 0 0 0 0 0 0 0 0 0 0 0 0 0 0 0 0 0 0 0 0 0 0 0 0 0 0 0 0
0 0 0 0 0 0 0 0 0 0 0 0 0 0 0 0 0 0 0 0 0 0 0 0 0 0 0 0 0 0 0 0 0 0 0 0 0 0
3 3 0 0 0 0 0 0 0 0 0 0 0 0 0 0 0 0 0 0 0 0 0 0 0 0 0 0 0 0 0 0 0 0 0 0 0 0
0 0 0 0 0 0 0 0 0 0 0 0 0 0 0 0 0 0 0 0 0 0 0 0 0 0 0 0 0 0 0 0 0 0 0 0 0 0
0 0 0 0 0 0 0 0 0 0 0 0 0 0 0 0 0 0 0 0 0 0 0 0 0 0 0 0 0 0 0 0 0 0 0 0 0 0
0 0 0 0 0 0 0 0 0 0 0 0 0 0 0 0 0 0 0 0 0 0 0 0 0 0 0 0 0 0 0 0 0 0 0 0 0 0
0 0 0 0 0 0 0 0 0 0 0 0 0 0 0 0 0 0 0 0 0 0 0 0 0 0 0 0 0 0 0 0 0 0 0 0 0 0
0 0 0 0 0 0 0 0 0 0 0 0 0 0 0 0 0 0 0 0 0 0 0 0 0 0 0 0 0 0 0 0 0 0 0 0 0 0
0 0 0 0 0 0 0 0 0 0 0 0 0 0 0 0 0 0 0 0 0 0 0 0 0 0 0 0 0 0 0 0 0 0 0 0 0 0
0 0 0 0 0 0 0 0 0 0 0 0 0 0 0 0 0 0 0 0 0 0 0 0 0 0 0 0 0 0 0 0 0 0 0 0 0 0
0 0 0 0 0 0 0 0 0 0 0 0 0 0 0 0 0 0 0 0 0 0 0 0 0 0 0 0 0 0 0 0 0 0 0 0 0 0
0 0 0 0 0 0 0 0 0 0 0 0 0 0 0 0 0 0 0 0 0 0 0 0 0 0 0 0 0 0 0 0 0 0 0 0 0 0
0 0 0 0 0 0 0 0 0 0 0 0 0 0 0 0 0 0 0 0 0 0 0 0 0 0 0 0 0 0 0 0 0 0 0 0 0 0
Height
5878 5880 5881 5882 5882 5883 5883 5884 5884 5884 5884 5883 5883 5882 5882 5881 5880 5879 5878 5877 5876 5875 5874 5872 5871 5869 5868 5866 5865 5863 5862 5860 5859 5857 5856 5854 5853 5852
5875 5876 5877 5878 5879 5880 5880 5881 5881 5881 5881 5881 5880 5880 5879 5878 5877 5876 5875 5874 5872 5871 5870 5868 5867 5865 5863 5862 5860 5858 5856 5855 5853 5851 5850 5848 5847 5845
5871 5872 5874 5875 5875 5876 5877 5877 5877 5877 5877 5877 5877 5876 5875 5874 5873 5872 5871 5869 5868 5867 5865 5863 5862 5860 5858 5856 5854 5852 5851 5849 5847 5845 5843 5841 5839 5838
5867 5869 5870 5871 5872 5872 5873 5873 5873 5873 5873 5873 5873 5872 5871 5870 5869 5867 5866 5865 5863 5861 5860 5858 5856 5854 5852 5850 5848 5846 5844 5842 5840 5837 5835 5833 5831 5829
5863 5865 5866 5867 5867 5868 5869 5869 5869 5869 5869 5869 5868 5867 5866 5865 5864 5862 5860 5859 5857 5855 5853 5851 5849 5847 5845 5843 5841 5838 5836 5834 5831 5829 5827 5824 5822 5820
5859 5860 5861 5862 5863 5863 5864 5864 5864 5864 5864 5863 5863 5861 5860 5859 5857 5856 5854 5852 5850 5848 5846 5844 5842 5840 5837 5835 5833 5830 5827 5825 5822 5819 5817 5814 5812 5809
5854 5855 5857 5857 5858 5858 5858 5858 5858 5858 5858 5857 5856 5855 5853 5852 5850 5849 5847 5845 5843 5841 5839 5836 5834 5832 5829 5826 5823 5820 5817 5814 5812 5809 5806 5803 5800 5797
5849 5850 5851 5852 5852 5853 5853 5852 5852 5852 5851 5850 5849 5848 5846 5844 5843 5841 5839 5837 5835 5833 5830 5828 5825 5822 5819 5816 5812 5809 5806 5803 5800 5797 5794 5791 5788 5785
5844 5845 5845 5846 5846 5846 5846 5846 5845 5845 5844 5843 5841 5840 5838 5836 5834 5832 5830 5828 5826 5823 5821 5819 5815 5812 5809 5805 5801 5797 5794 5791 5787 5784 5781 5778 5774 5771
5838 5838 5839 5839 5840 5840 5839 5839 5838 5837 5836 5835 5833 5831 5829 5827 5825 5823 5821 5819 5817 5813 5809 5808 5805 5801 5798 5794 5789 5785 5782 5778 5774 5770 5767 5763 5760 5756
5831 5832 5832 5832 5832 5832 5831 5831 5830 5829 5827 5826 5824 5822 5820 5817 5815 5813 5810 5808 5806 5803 5798 5795 5792 5789 5786 5782 5777 5772 5768 5764 5760 5756 5752 5748 5745 5741
5824 5824 5825 5825 5824 5824 5823 5822 5821 5820 5818 5817 5815 5812 5810 5808 5805 5802 5799 5796 5794 5792 5787 5782 5779 5775 5773 5770 5764 5759 5754 5750 5746 5741 5737 5733 5729 5725
5816 5817 5816 5816 5816 5815 5814 5813 5812 5810 5808 5806 5805 5802 5800 5797 5794 5791 5787 5784 5781 5778 5774 5770 5766 5762 5758 5756 5752 5746 5740 5736 5731 5727 5722 5717 5712 5708
5808 5808 5808 5807 5807 5806 5805 5804 5802 5800 5799 5797 5794 5792 5789 5786 5782 5779 5775 5771 5768 5765 5761 5756 5752 5748 5744 5741 5737 5733 5727 5721 5717 5712 5707 5702 5696 5691
5800 5799 5799 5798 5797 5796 5795 5793 5791 5790 5788 5786 5783 5781 5777 5774 5770 5766 5762 5758 5755 5751 5747 5742 5738 5734 5730 5726 5722 5718 5713 5708 5702 5697 5692 5686 5681 5676
5791 5790 5789 5789 5787 5786 5785 5782 5781 5779 5776 5774 5771 5768 5764 5761 5757 5754 5750 5746 5742 5738 5733 5728 5724 5719 5715 5711 5706 5702 5697 5693 5688 5682 5677 5671 5666 5660
5781 5780 5780 5779 5777 5776 5774 5771 5769 5767 5764 5761 5758 5755 5752 5748 5744 5740 5736 5732 5728 5724 5720 5715 5710 5705 5700 5696 5692 5687 5682 5677 5671 5666 5662 5657 5651 5645
5771 5770 5769 5768 5766 5764 5762 5759 5757 5754 5751 5748 5745 5742 5738 5734 5730 5726 5722 5718 5714 5710 5705 5701 5696 5691 5686 5681 5676 5671 5666 5661 5657 5651 5646 5642 5638 5632
5760 5759 5758 5756 5754 5752 5750 5747 5744 5741 5738 5735 5731 5728 5724 5720 5716 5712 5708 5704 5700 5695 5691 5686 5681 5676 5672 5668 5662 5655 5651 5646 5642 5637 5632 5627 5624 5619
5749 5748 5746 5744 5742 5740 5737 5734 5731 5728 5725 5721 5717 5714 5710 5706 5702 5698 5694 5689 5685 5680 5675 5670 5666 5661 5656 5653 5648 5642 5635 5631 5627 5624 5619 5614 5610 5606
5738 5736 5734 5731 5729 5726 5723 5720 5717 5714 5711 5707 5703 5700 5696 5691 5687 5683 5678 5674 5669 5665 5660 5656 5650 5645 5641 5637 5633 5629 5623 5617 5613 5610 5606 5602 5598 5594
5726 5723 5721 5719 5716 5713 5710 5707 5703 5700 5696 5692 5689 5685 5681 5676 5672 5668 5663 5659 5654 5650 5645 5641 5635 5631 5626 5622 5619 5615 5612 5606 5601 5597 5593 5589 5585 5582
5714 5711 5708 5706 5703 5699 5696 5692 5689 5685 5682 5678 5674 5670 5666 5661 5657 5653 5648 5644 5639 5635 5631 5626 5622 5618 5613 5609 5606 5603 5599 5596 5591 5587 5583 5578 5575 5571
Wind_Speed
15 14 13 12 11 10 9 8 8 7 7 7 7 7 8 8 9 10 10 11 11 12 13 13 14 14 15 15 16 17 18 19 19 20 20 21 22 22
16 15 14 14 13 11 11 10 10 9 9 9 9 10 10 11 11 12 13 14 14 15 15 15 16 16 17 18 19 20 20 21 21 22 22 23 24 25
17 16 16 15 14 13 13 12 11 11 11 11 12 12 13 13 14 15 16 16 17 17 18 18 19 19 20 21 22 22 23 23 24 24 25 25 26 27
17 17 16 15 15 15 14 14 13 14 14 14 15 15 16 16 17 18 18 19 19 20 20 21 21 22 23 23 24 25 25 26 27 27 28 29 30 30
18 18 17 16 16 16 16 16 16 16 16 17 18 18 19 19 20 20 21 21 22 23 24 24 25 25 26 27 28 28 29 30 31 32 33 33 34 34
19 19 19 18 18 18 18 18 19 19 19 20 21 21 22 23 23 24 24 25 25 26 27 28 28 29 30 31 32 33 34 35 36 36 37 37 38 38
20 20 20 20 20 20 20 21 21 22 22 23 23 24 25 25 26 27 27 28 28 29 30 30 31 32 33 34 36 37 38 38 39 39 40 40 41 42
22 22 22 22 22 22 23 23 24 24 25 25 26 26 27 28 29 29 29 30 30 32 32 33 34 35 36 37 39 40 41 41 41 42 42 43 44 44
24 24 24 24 24 24 25 25 26 26 27 27 28 29 29 30 31 31 31 31 32 34 35 35 37 38 39 40 42 43 44 44 44 44 45 46 46 47
25 25 25 25 26 26 27 27 28 28 29 30 30 31 32 32 33 33 34 34 35 37 39 38 39 41 41 42 43 44 45 46 47 48 48 48 49 49
27 27 27 27 27 28 29 29 30 31 31 31 32 33 34 35 36 37 38 38 38 40 42 42 42 43 43 43 45 47 48 48 49 49 50 51 51 51
27 28 29 29 30 30 31 31 32 33 34 34 34 36 37 37 38 39 41 42 43 42 44 45 45 46 45 45 47 48 48 49 50 50 51 52 53 52
28 29 30 31 32 32 32 33 34 35 36 36 37 38 39 39 40 42 43 44 45 46 46 47 48 48 48 47 47 48 49 49 50 51 52 53 53 54
30 30 32 33 35 35 35 36 36 37 38 38 39 40 41 42 43 44 45 45 46 47 48 49 49 50 50 49 48 48 49 50 51 52 53 53 53 53
31 32 33 33 35 35 37 38 39 40 40 41 41 42 43 45 45 46 46 47 48 48 48 49 49 50 50 50 49 50 50 50 52 53 52 52 52 53
31 32 33 34 36 37 37 39 40 41 42 43 43 45 46 47 47 47 48 48 49 48 49 50 51 51 51 51 52 52 52 53 53 53 52 51 52 53
33 33 34 35 36 38 40 41 42 43 44 45 45 46 47 47 48 48 49 49 49 49 50 50 51 51 52 52 53 53 53 54 53 53 52 51 51 51
34 35 35 37 38 39 41 42 42 43 45 46 46 47 48 48 49 49 50 50 51 51 51 51 51 52 52 53 54 54 54 53 53 52 51 50 49 49
36 37 38 39 39 40 41 42 43 44 45 46 47 47 47 48 49 50 50 51 52 52 52 52 52 53 53 53 52 53 53 52 51 49 49 49 47 45
38 38 38 39 39 40 41 42 43 44 45 46 47 47 48 49 50 51 51 52 52 53 53 53 54 54 54 53 52 51 51 50 48 48 46 45 44 43
39 39 40 40 40 41 42 43 44 45 46 47 48 49 49 50 51 51 51 52 52 52 52 53 53 53 52 51 49 47 47 47 47 45 43 42 40 39
40 40 40 41 41 43 44 45 46 47 48 49 49 49 50 50 51 51 51 51 51 51 51 51 50 48 47 46 45 43 42 42 42 42 40 39 37 35
39 39 40 42 43 44 45 46 47 48 48 48 48 48 49 49 49 49 49 49 49 49 49 48 47 47 46 44 43 42 40 39 39 38 36 36 34 32
Wind_Direction
222 224 225 227 230 236 240 243 246 250 253 259 265 270 274 278 282 287 290 292 293 293 292 292 293 293 293 292 293 291 288 286 286 285 285 284 283 282
224 227 230 233 235 240 243 247 251 254 258 262 265 268 273 276 280 285 288 290 291 291 292 293 294 294 294 292 292 292 290 289 288 288 286 285 283 282
228 230 232 236 239 242 245 249 254 258 262 266 269 271 276 280 283 285 288 290 290 291 293 294 295 295 294 292 292 292 292 290 288 287 287 286 285 283
232 234 235 238 242 245 248 251 256 261 265 269 273 276 279 281 284 286 287 289 290 291 292 292 293 293 293 292 291 291 291 289 288 287 286 286 285 284
233 235 238 242 246 250 252 255 259 263 267 271 274 278 280 282 283 285 286 288 289 290 291 291 291 291 292 291 290 290 289 288 288 287 286 285 284 283
235 239 243 245 249 253 256 259 263 266 270 274 277 280 282 283 285 286 286 288 289 290 291 291 291 291 291 290 290 289 289 288 288 287 286 286 285 283
239 242 245 248 253 257 260 263 266 270 272 276 279 282 283 284 286 286 287 287 289 290 290 291 291 291 291 290 290 289 289 289 289 288 288 287 286 284
244 247 250 253 257 260 263 266 269 272 274 278 281 283 284 285 285 285 285 286 287 288 289 290 291 291 291 291 290 289 289 288 288 288 287 286 286 285
247 251 253 255 259 263 266 268 270 273 276 279 282 284 285 285 286 286 287 287 288 289 289 290 290 291 291 292 291 290 290 289 289 288 288 287 286 285
251 253 255 258 262 265 268 270 270 273 276 279 281 283 284 285 286 287 288 287 288 289 290 290 289 290 290 291 291 291 291 290 290 289 289 288 286 286
254 255 257 260 264 267 269 271 273 275 277 279 281 283 285 285 286 286 288 287 288 289 289 290 290 291 291 291 290 290 290 290 289 289 288 287 287 287
256 257 259 262 264 267 269 271 273 275 277 279 281 283 285 286 287 288 288 288 288 289 289 290 291 291 291 291 290 291 290 290 289 289 289 289 289 288
257 259 261 263 266 267 270 272 273 276 279 280 283 283 284 286 288 289 289 288 288 288 289 290 291 291 291 291 290 290 290 290 290 290 290 291 291 290
260 262 264 266 268 269 271 273 275 277 280 281 283 284 285 286 287 288 288 288 288 289 289 290 290 290 290 291 291 291 291 291 291 291 291 292 292 292
263 265 267 269 270 272 274 275 276 278 280 281 281 282 284 285 286 286 287 288 289 289 289 290 290 290 290 292 292 292 292 292 292 293 292 292 292 292
264 266 269 271 273 274 276 276 277 278 279 280 281 282 284 285 286 286 287 288 290 291 291 291 290 290 291 292 293 293 292 292 292 292 292 293 293 293
266 269 272 273 275 277 278 278 277 278 279 280 281 283 284 284 285 286 287 288 290 290 290 290 289 290 291 292 292 292 292 291 291 292 292 293 294 295
269 272 274 276 277 278 279 279 279 281 282 282 283 283 283 284 284 285 286 287 289 290 290 289 289 290 291 292 292 292 292 292 292 293 292 293 294 294
271 273 274 275 277 278 280 281 281 282 282 282 283 283 284 285 286 286 288 288 289 289 289 289 289 290 290 292 292 293 293 293 293 293 294 295 295 295
273 274 275 277 279 280 281 281 281 282 283 283 284 285 285 286 286 287 288 288 289 289 289 289 289 290 291 291 292 292 292 292 293 294 295 295 296 296
275 277 278 279 279 280 281 282 283 283 284 285 285 285 286 286 287 288 288 289 289 289 289 290 290 291 292 292 293 293 292 292 294 295 296 296 296 297
277 278 279 279 282 283 284 284 284 284 285 285 285 285 286 287 288 288 288 289 289 289 289 290 290 292 293 293 293 292 292 294 296 297 297 297 297 297
279 280 281 282 283 283 284 286 286 286 286 286 286 287 287 288 288 289 288 288 289 289 289 289 290 291 292 292 291 291 292 294 297 297 297 298 298 299